Wind_Speed
2 2 2 2 2 2 2 2 1 1 1 1 1 0 0 1 2 2 2 2 3 3 3 3 3 2 3 4 4 3 3 3 3 4 4 4 4 4 4 4 4 4 4 5 6 7 8 8 8
2 2 2 2 2 2 3 2 2 2 2 2 1 2 2 3 3 3 3 3 4 4 4 4 4 4 4 5 5 4 4 3 3 3 4 5 5 5 5 5 5 5 5 6 7 8 8 8 9
2 3 2 3 3 3 3 3 3 3 3 3 2 3 4 4 4 4 4 4 4 5 5 5 5 5 5 5 5 5 5 4 4 3 4 5 6 6 6 6 6 6 6 7 7 7 8 8 9
3 3 3 4 4 4 4 4 4 4 4 4 3 4 4 5 5 5 5 5 5 5 6 6 6 7 6 6 6 6 5 5 4 4 5 5 7 7 6 6 7 7 7 7 7 7 8 8 9
4 4 4 4 4 5 5 5 5 5 5 5 5 5 5 6 6 6 6 6 6 6 7 7 7 8 7 7 6 6 6 6 5 5 6 6 7 7 7 7 7 7 6 7 7 7 8 9 9
5 5 5 5 5 6 6 6 5 5 5 5 6 6 6 6 6 6 7 7 7 7 8 8 8 8 7 7 7 7 7 6 6 6 6 7 7 7 7 7 7 7 7 7 8 8 8 9 10
6 6 6 6 6 7 7 7 6 5 6 6 6 7 7 7 7 7 7 7 8 8 8 8 8 8 8 7 7 7 7 7 6 6 7 7 7 7 7 6 7 7 7 7 8 9 9 9 9
7 7 7 7 7 7 8 7 7 7 7 7 7 7 7 8 8 8 7 7 8 8 8 8 8 8 8 8 8 8 8 8 7 7 7 7 6 6 6 6 6 7 7 7 8 8 9 9 9
8 7 7 8 8 8 8 8 8 8 8 8 8 8 8 8 8 8 8 7 8 8 8 8 8 9 9 8 8 9 9 8 8 7 7 6 6 7 6 6 6 7 7 7 7 7 8 8 8
9 9 9 9 9 9 9 9 8 8 9 9 9 9 9 8 9 9 8 8 8 8 8 8 8 8 9 8 8 8 8 8 8 7 6 6 6 6 6 6 6 6 6 6 6 6 7 7 7
10 10 10 10 10 10 10 10 9 10 10 10 10 10 10 9 9 10 9 8 8 8 8 8 8 8 8 7 7 7 7 7 7 6 6 6 6 5 5 5 6 5 5 6 6 6 6 6 7
12 11 11 11 11 11 11 11 10 10 11 11 11 11 10 10 10 10 10 9 9 8 8 8 7 7 7 6 7 7 7 6 5 5 5 5 4 4 4 4 4 5 4 5 5 5 5 6 6
12 12 12 12 12 12 12 12 11 11 11 11 12 12 12 11 10 10 10 10 9 9 8 8 8 7 6 6 6 6 6 6 4 4 4 4 4 4 3 3 4 4 4 4 4 4 4 4 4
13 13 13 12 12 12 12 12 12 12 12 12 11 11 11 11 11 10 10 10 10 9 9 9 8 8 8 7 6 6 7 6 5 4 3 3 2 2 1 2 2 2 2 3 3 2 3 3 3
13 13 13 13 12 12 12 12 12 12 12 12 12 11 12 11 11 11 10 10 10 9 9 9 8 8 7 7 6 7 7 6 5 4 3 2 2 1 1 1 1 1 1 2 2 2 2 2 2
13 13 13 13 13 12 12 12 12 12 12 12 12 12 12 12 11 11 11 10 9 9 9 9 8 8 8 7 6 7 7 6 5 4 3 2 1 1 1 1 1 1 1 1 1 1 1 2 2
12 12 13 13 13 13 13 12 12 12 12 12 12 12 13 12 12 11 11 11 11 10 10 9 8 8 9 8 7 7 7 6 5 4 3 2 1 1 1 0 1 1 1 1 1 1 1 1 1
12 12 12 13 13 13 13 13 14 13 13 13 13 13 13 13 12 12 11 12 12 11 11 10 9 9 9 8 7 6 6 6 5 4 3 2 1 1 1 0 1 1 1 1 2 1 1 1 1
12 12 12 13 13 13 13 14 14 14 14 14 13 14 14 13 13 12 12 13 13 12 12 11 10 10 9 8 7 7 6 6 5 4 3 3 2 1 1 1 1 2 2 2 2 2 2 2 2
13 12 13 13 13 13 13 14 14 14 14 14 14 14 14 14 13 13 13 14 14 14 13 12 12 11 10 9 8 7 7 6 5 4 4 4 3 2 1 1 2 2 2 2 2 2 2 2 2
13 13 13 13 13 13 13 13 13 13 14 14 13 14 14 14 14 14 14 14 15 15 14 14 14 12 11 10 9 8 8 7 6 6 5 4 3 2 2 1 1 2 2 2 2 2 2 2 2
14 14 14 14 13 13 13 13 14 13 13 14 14 13 14 14 14 14 15 15 16 16 15 15 14 13 12 12 11 9 9 8 7 6 6 4 4 3 2 1 1 2 2 1 2 2 2 1 2
15 14 14 14 14 14 14 14 14 13 12 13 13 13 13 13 13 14 15 15 16 16 15 15 15 14 14 13 11 11 9 9 8 7 6 5 4 3 2 2 1 2 2 1 1 1 1 1 2
15 15 15 14 14 14 14 14 14 14 13 13 13 13 13 14 14 14 14 15 15 16 16 16 15 14 14 13 12 12 10 10 9 8 7 6 5 4 3 2 2 1 1 0 0 1 0 1 2
16 15 15 14 14 14 13 14 13 13 13 13 13 13 13 14 14 13 13 14 14 15 15 15 14 14 14 14 13 12 11 11 9 9 8 7 5 4 3 3 2 1 0 0 0 1 1 1 1
16 15 15 14 14 13 13 14 13 13 13 13 13 13 13 13 13 13 13 13 14 15 15 15 15 15 15 14 14 13 12 12 11 10 9 8 7 5 4 4 2 1 1 1 1 1 1 1 1
16 15 15 15 14 14 14 14 13 13 13 13 13 13 13 13 13 14 13 14 14 15 16 15 15 15 15 15 14 13 12 12 12 11 10 9 8 7 5 4 3 2 2 2 1 2 1 1 0
16 16 15 14 14 14 13 13 13 12 12 12 13 12 12 12 13 14 14 14 14 15 15 16 15 15 15 15 15 14 14 13 13 12 11 10 9 8 6 5 4 3 2 2 2 2 1 1 1
16 16 15 15 15 14 13 13 12 12 11 11 11 12 12 11 12 13 13 14 14 14 15 15 16 16 16 16 16 15 15 15 14 13 12 11 10 9 8 6 5 4 3 2 2 2 2 2 2
17 16 15 15 15 14 14 13 13 12 11 11 11 11 11 11 12 13 13 14 14 14 15 15 16 16 16 16 16 15 15 15 14 13 13 12 11 10 9 7 6 5 4 3 3 3 3 3 3
Wind_Direction
7 31 32 26 12 15 350 337 320 324 311 310 297 292 251 260 267 258 249 232 230 227 215 214 223 235 246 244 242 249 247 254 254 246 251 255 260 272 277 279 284 281 280 282 276 266 260 256 257
321 334 345 345 334 323 313 312 306 302 298 300 288 281 279 271 266 260 253 241 234 227 219 227 237 242 250 246 244 248 255 254 247 252 262 265 272 275 282 284 278 275 274 274 279 271 263 259 257
306 308 311 308 302 298 295 293 290 296 291 292 280 276 274 274 269 270 258 242 236 230 227 236 244 251 252 246 240 241 249 252 251 259 268 272 276 275 277 284 281 276 275 273 277 272 269 266 261
293 295 292 291 283 279 281 284 285 290 287 287 286 282 275 274 269 268 260 249 245 240 240 245 250 251 253 253 245 240 243 251 257 267 273 280 279 275 277 282 286 282 277 272 273 272 274 271 266
279 281 283 283 275 271 277 282 282 283 284 280 282 283 278 277 273 268 262 257 252 246 246 251 253 250 248 245 245 245 245 249 259 268 275 283 284 282 277 278 281 282 279 273 270 272 274 275 272
270 272 272 272 272 270 269 277 277 276 279 278 278 279 277 280 276 270 261 258 257 254 250 253 255 251 243 238 240 241 243 253 260 268 278 284 282 286 281 278 275 275 276 275 272 273 277 278 277
266 266 267 269 270 271 270 270 270 272 275 278 278 277 278 279 281 275 265 256 254 254 254 257 260 254 247 239 235 242 243 252 265 272 278 281 284 290 287 278 270 273 276 278 277 275 279 280 279
266 265 267 269 268 270 268 268 268 269 272 275 278 273 275 280 281 278 272 263 255 254 256 257 259 260 254 242 235 241 246 255 267 274 276 275 284 291 288 283 275 273 276 280 280 280 283 282 282
266 265 265 264 264 266 268 269 267 268 269 273 275 275 275 277 278 276 276 268 259 255 255 257 260 261 257 244 239 243 247 255 264 270 273 273 283 286 286 283 282 278 281 282 282 283 284 283 283
264 264 264 263 263 265 268 270 271 268 270 273 274 276 275 277 276 273 273 269 262 259 262 262 260 262 259 254 243 245 249 254 262 265 266 271 280 285 284 286 289 286 283 282 285 287 286 286 283
264 265 265 262 261 263 265 267 269 267 269 272 275 275 274 274 273 269 269 270 262 258 261 263 263 262 260 256 247 244 249 254 258 258 263 271 274 282 284 287 298 294 287 284 290 293 292 292 285
263 264 264 263 264 264 265 267 268 265 267 272 273 273 271 273 272 266 265 263 258 256 261 262 261 264 260 251 243 241 245 243 248 258 266 269 273 274 279 288 298 297 291 289 289 287 291 294 292
265 265 266 265 264 265 267 267 266 266 268 272 275 275 275 274 268 261 262 260 257 256 256 257 257 258 247 241 240 240 236 234 241 260 268 269 269 266 273 287 294 295 294 295 291 294 299 302 299
266 265 266 266 264 264 265 267 268 268 270 274 277 278 278 271 267 266 265 264 258 253 251 253 252 252 239 236 238 236 229 229 236 254 263 274 281 268 272 301 306 299 294 293 292 310 313 315 311
266 266 266 265 264 265 265 267 269 268 269 271 274 277 276 271 265 263 266 266 258 251 251 252 250 249 235 232 227 229 225 221 230 243 249 255 256 254 265 303 319 312 299 297 299 317 321 324 319
266 267 267 266 266 264 265 266 266 267 267 270 273 274 274 268 266 259 256 260 255 253 253 249 246 242 232 225 225 229 225 221 226 233 236 228 228 238 250 278 339 348 329 326 328 331 336 343 345
264 267 267 266 266 264 263 265 265 266 267 270 273 272 269 267 264 259 254 255 253 253 254 247 241 237 234 233 226 226 224 218 217 216 214 208 206 215 219 189 27 22 11 6 8 14 14 360 14
263 266 269 268 266 265 264 264 266 265 266 269 270 270 268 266 264 261 258 255 252 249 247 240 236 237 234 232 231 222 212 209 206 204 197 195 190 203 209 164 92 84 70 56 43 49 51 34 23
263 265 267 268 267 266 265 265 265 265 266 267 267 267 264 261 260 258 257 254 250 247 244 238 236 236 235 230 222 215 207 204 202 196 194 191 185 177 185 144 109 87 75 67 60 57 56 69 77
264 266 266 266 267 268 268 266 267 265 265 265 264 264 262 261 258 257 256 252 248 245 240 235 232 233 233 226 214 211 207 200 196 194 193 189 182 159 146 126 115 96 84 71 68 61 68 89 104
263 267 267 267 269 269 268 266 266 265 263 263 263 262 262 263 261 257 255 250 246 243 239 234 232 232 227 221 213 212 210 204 201 196 193 190 181 165 153 137 128 126 106 88 79 71 81 101 121
262 265 268 268 268 268 268 265 267 267 265 264 263 261 260 261 259 256 253 248 244 242 238 232 229 228 226 220 213 213 210 205 202 199 196 192 188 181 176 167 151 152 134 115 99 96 89 120 140
260 263 266 268 268 268 268 268 268 267 266 265 263 260 258 259 258 255 251 245 242 239 235 231 230 229 226 223 216 212 209 202 199 199 197 192 188 186 179 173 166 163 162 153 109 77 107 159 168
262 264 265 266 268 269 270 269 267 266 265 264 263 260 255 256 256 253 248 244 241 239 234 232 230 226 223 219 215 210 207 202 200 200 199 193 190 189 185 183 175 167 170 292 344 15 94 152 161
262 265 266 266 268 270 270 269 269 266 264 262 261 259 257 254 252 248 245 242 238 237 233 228 225 221 219 216 211 208 209 205 204 203 201 197 197 197 193 192 183 173 165 298 299 97 114 143 149
261 261 263 265 267 267 266 267 270 268 265 261 259 259 256 253 250 246 242 238 237 235 229 224 221 219 218 215 211 211 212 211 209 209 208 205 205 204 204 205 199 203 205 192 172 147 119 131 156
256 257 260 261 264 266 268 266 267 266 264 261 257 254 252 252 249 245 241 238 236 234 226 222 219 217 215 213 213 213 215 215 213 213 213 211 211 213 216 217 224 227 224 222 218 195 188 159 149
254 256 257 259 263 265 268 265 263 263 263 259 254 251 251 250 246 243 241 236 233 229 225 222 218 219 218 216 216 217 217 217 214 214 216 214 213 214 217 224 234 238 244 239 216 201 213 239 253
253 253 255 259 261 262 268 264 258 261 260 260 255 250 250 249 245 244 242 235 233 231 227 221 220 220 219 218 220 220 218 217 217 217 217 215 215 216 218 226 233 236 241 243 236 231 239 254 271
248 251 253 255 258 262 265 262 258 257 257 259 257 251 248 247 244 242 240 234 231 229 228 223 221 221 221 220 219 220 219 217 216 215 215 215 216 218 221 224 228 233 238 245 248 256 258 271 283
Height
5902 5902 5902 5903 5904 5903 5903 5902 5902 5902 5901 5901 5901 5901 5900 5900 5901 5903 5900 5898 5898 5898 5897 5897 5897 5897 5896 5896 5896 5895 5895 5895 5895 5894 5894 5894 5894 5893 5893 5892 5892 5892 5892 5891 5891 5891 5891 5891 5891
5901 5902 5902 5903 5903 5902 5902 5902 5901 5901 5901 5900 5900 5900 5900 5899 5899 5899 5898 5897 5897 5897 5896 5896 5896 5896 5895 5895 5895 5894 5894 5894 5894 5894 5893 5893 5893 5892 5892 5891 5891 5891 5890 5890 5889 5889 5889 5889 5889
5901 5901 5902 5902 5901 5902 5901 5901 5900 5900 5900 5899 5899 5899 5899 5898 5898 5897 5897 5896 5896 5895 5895 5895 5895 5894 5894 5894 5893 5893 5893 5893 5893 5892 5892 5892 5892 5891 5890 5890 5890 5889 5889 5888 5888 5888 5888 5888 5888
5900 5901 5901 5901 5900 5900 5900 5900 5899 5899 5899 5898 5898 5898 5897 5897 5896 5896 5895 5895 5895 5894 5894 5894 5893 5893 5893 5892 5892 5892 5892 5892 5892 5891 5891 5891 5890 5889 5889 5889 5888 5888 5887 5887 5886 5886 5886 5886 5886
5899 5900 5900 5899 5899 5899 5898 5898 5898 5898 5897 5897 5897 5896 5896 5896 5895 5894 5894 5893 5893 5893 5892 5892 5892 5891 5891 5891 5891 5891 5891 5891 5890 5890 5890 5889 5888 5887 5887 5887 5886 5886 5885 5885 5885 5884 5884 5884 5884
5898 5898 5899 5898 5898 5897 5897 5897 5896 5896 5896 5896 5895 5895 5894 5894 5893 5893 5892 5892 5891 5891 5891 5890 5890 5890 5889 5890 5890 5889 5889 5889 5889 5888 5888 5887 5887 5886 5886 5885 5885 5884 5884 5883 5883 5883 5882 5882 5882
5897 5897 5897 5897 5896 5896 5896 5895 5895 5895 5895 5894 5894 5893 5893 5892 5892 5891 5891 5890 5890 5889 5889 5889 5888 5888 5888 5888 5888 5888 5888 5888 5887 5887 5887 5886 5885 5885 5884 5884 5883 5883 5882 5881 5881 5881 5880 5880 5880
5895 5896 5895 5895 5895 5895 5894 5894 5893 5893 5893 5893 5892 5892 5891 5891 5890 5889 5889 5888 5888 5888 5888 5887 5887 5886 5886 5886 5886 5886 5886 5886 5886 5886 5885 5885 5884 5884 5883 5882 5882 5881 5881 5880 5879 5879 5878 5878 5878
5893 5895 5893 5893 5893 5893 5892 5892 5892 5891 5891 5891 5890 5890 5889 5889 5888 5888 5887 5887 5886 5886 5886 5885 5885 5885 5885 5884 5884 5884 5884 5884 5884 5884 5883 5883 5882 5882 5882 5881 5880 5880 5879 5878 5878 5877 5877 5876 5876
5891 5891 5891 5891 5891 5891 5890 5890 5890 5890 5889 5889 5888 5888 5887 5887 5886 5886 5885 5885 5884 5884 5884 5884 5883 5883 5883 5882 5883 5883 5883 5883 5883 5882 5882 5882 5881 5881 5880 5880 5879 5878 5878 5877 5876 5875 5875 5875 5874
5888 5889 5888 5888 5888 5888 5888 5888 5888 5887 5887 5887 5886 5886 5885 5885 5884 5884 5883 5883 5882 5882 5882 5882 5881 5881 5881 5881 5881 5881 5881 5881 5881 5881 5880 5880 5880 5880 5879 5878 5878 5877 5876 5876 5875 5874 5874 5873 5873
5886 5886 5886 5886 5886 5886 5886 5886 5886 5885 5885 5885 5884 5883 5883 5882 5882 5882 5881 5881 5880 5880 5880 5880 5880 5880 5879 5879 5879 5879 5880 5880 5880 5880 5880 5879 5879 5878 5878 5877 5877 5876 5875 5875 5874 5873 5873 5872 5871
5883 5883 5883 5883 5883 5883 5883 5883 5883 5883 5883 5882 5881 5881 5880 5880 5880 5879 5879 5879 5878 5879 5879 5879 5878 5878 5878 5878 5878 5878 5878 5879 5879 5879 5879 5878 5878 5877 5877 5876 5876 5875 5875 5874 5873 5873 5872 5871 5870
5880 5880 5880 5880 5880 5880 5880 5880 5880 5880 5880 5880 5879 5878 5878 5878 5877 5877 5877 5877 5876 5877 5877 5877 5877 5877 5876 5877 5877 5877 5877 5878 5878 5878 5878 5877 5877 5876 5876 5876 5875 5875 5874 5873 5873 5872 5871 5871 5870
5877 5878 5878 5878 5877 5878 5878 5878 5877 5877 5877 5877 5876 5876 5875 5875 5875 5875 5875 5874 5874 5875 5875 5875 5875 5875 5875 5875 5876 5876 5876 5876 5877 5877 5877 5877 5876 5876 5875 5875 5874 5874 5874 5873 5872 5872 5871 5870 5869
5875 5875 5875 5875 5875 5875 5877 5876 5875 5874 5874 5874 5874 5873 5873 5873 5872 5873 5873 5872 5873 5873 5873 5873 5873 5874 5874 5874 5875 5875 5875 5876 5876 5876 5876 5876 5876 5875 5875 5875 5874 5873 5873 5873 5872 5871 5871 5870 5869
5872 5872 5872 5872 5871 5871 5872 5872 5872 5871 5871 5871 5871 5870 5870 5870 5870 5870 5870 5870 5871 5871 5871 5871 5872 5872 5872 5873 5873 5874 5874 5875 5875 5875 5876 5875 5875 5875 5875 5874 5874 5873 5873 5873 5872 5871 5870 5870 5869
5869 5869 5869 5869 5869 5869 5868 5868 5868 5868 5868 5868 5868 5868 5868 5867 5867 5868 5868 5868 5869 5869 5869 5870 5870 5871 5871 5872 5872 5873 5873 5874 5874 5875 5875 5875 5875 5875 5874 5874 5874 5873 5873 5872 5872 5871 5870 5870 5869
5866 5866 5866 5866 5865 5865 5865 5865 5865 5865 5865 5865 5865 5865 5865 5865 5865 5865 5865 5866 5866 5867 5867 5868 5869 5869 5870 5871 5871 5872 5872 5873 5874 5874 5874 5874 5875 5874 5874 5874 5874 5873 5873 5872 5872 5871 5870 5870 5869
5863 5863 5863 5862 5862 5862 5862 5862 5862 5861 5861 5861 5861 5861 5861 5862 5862 5862 5862 5863 5864 5864 5865 5866 5867 5868 5869 5869 5870 5871 5872 5872 5873 5873 5874 5874 5874 5874 5874 5874 5874 5873 5873 5873 5872 5871 5871 5870 5870
5859 5859 5859 5859 5859 5858 5859 5859 5859 5858 5858 5858 5858 5858 5858 5858 5859 5859 5860 5860 5861 5862 5863 5864 5865 5866 5867 5868 5869 5870 5871 5872 5872 5873 5873 5874 5874 5874 5874 5874 5874 5873 5873 5873 5872 5871 5871 5870 5870
5856 5856 5856 5856 5856 5855 5856 5856 5855 5855 5854 5855 5855 5855 5855 5855 5856 5856 5856 5857 5858 5859 5860 5861 5863 5864 5865 5867 5868 5869 5870 5871 5872 5872 5873 5873 5873 5874 5874 5874 5873 5873 5873 5873 5872 5872 5871 5871 5871
5852 5852 5852 5852 5852 5852 5852 5852 5853 5851 5851 5851 5851 5851 5852 5852 5852 5853 5853 5854 5855 5856 5858 5859 5860 5862 5863 5865 5866 5868 5869 5870 5871 5872 5872 5873 5873 5873 5873 5873 5873 5873 5873 5873 5873 5872 5871 5871 5871
5848 5849 5848 5848 5848 5849 5849 5848 5849 5848 5848 5848 5848 5848 5848 5848 5849 5849 5850 5851 5852 5853 5855 5857 5858 5859 5861 5863 5865 5866 5868 5869 5870 5871 5872 5872 5873 5873 5873 5873 5873 5873 5873 5873 5872 5872 5871 5871 5871
5844 5845 5845 5845 5845 5845 5845 5844 5845 5844 5844 5844 5844 5844 5844 5845 5845 5846 5846 5848 5849 5851 5852 5854 5855 5857 5859 5861 5863 5865 5866 5868 5869 5870 5871 5871 5872 5873 5873 5873 5873 5873 5873 5872 5872 5872 5871 5871 5871
5840 5841 5842 5842 5842 5841 5841 5840 5842 5840 5840 5840 5840 5841 5841 5841 5842 5842 5843 5845 5846 5848 5850 5851 5853 5855 5857 5859 5861 5863 5865 5866 5868 5869 5870 5871 5871 5872 5872 5872 5873 5873 5873 5873 5872 5872 5871 5871 5871
5835 5836 5837 5837 5837 5837 5837 5837 5837 5836 5836 5836 5836 5837 5838 5838 5838 5839 5840 5842 5843 5845 5847 5849 5851 5853 5855 5857 5859 5861 5863 5865 5866 5867 5868 5870 5870 5871 5872 5872 5872 5872 5872 5872 5872 5872 5871 5871 5871
5831 5832 5832 5833 5833 5834 5834 5833 5834 5833 5832 5833 5833 5834 5834 5835 5835 5836 5837 5839 5840 5842 5844 5846 5849 5851 5853 5855 5857 5859 5861 5862 5864 5866 5867 5868 5869 5870 5871 5871 5872 5872 5872 5872 5872 5872 5871 5871 5871
5827 5828 5828 5829 5829 5830 5830 5832 5830 5829 5829 5830 5830 5831 5831 5832 5832 5833 5835 5836 5838 5840 5842 5844 5846 5849 5851 5853 5855 5857 5859 5860 5862 5864 5865 5867 5868 5869 5870 5870 5871 5871 5871 5871 5871 5871 5871 5871 5870
5822 5823 5824 5825 5826 5826 5827 5830 5826 5826 5826 5826 5827 5827 5828 5829 5830 5830 5832 5833 5835 5837 5839 5842 5844 5846 5849 5851 5853 5854 5856 5858 5860 5862 5863 5865 5866 5867 5868 5869 5870 5870 5870 5871 5871 5871 5870 5870 5870